| time (UTC) | temp C | wind direction | speed KPH | gust KPH | rain 1hr cm | rain 24hr cm | rain mn cm | humidity % | barometer mb |
| 20260901041555 | 9 | 175 | 0.0 | 0.0 | 0.00 | 0.03 | 0.00 | 1 | 1008.8 |
| 20260901040051 | 9 | 175 | 0.0 | 0.0 | 0.00 | 0.03 | 0.00 | 1 | 1008.8 |
| 20260901034550 | 9 | 175 | 0.0 | 0.0 | 0.00 | 0.03 | 0.00 | 1 | 1008.8 |
| 20260901033104 | 9 | 175 | 0.0 | 0.0 | 0.00 | 0.03 | 0.00 | 1 | 1008.8 |
| 20260901031542 | 9 | 175 | 0.0 | 0.0 | 0.00 | 0.03 | 0.00 | 1 | 1008.8 |
| 20260901030033 | 8 | 212 | 0.0 | 0.0 | 0.00 | 0.03 | 0.00 | 1 | 1008.8 |
| 20260901024529 | 8 | 175 | 0.0 | 0.0 | 0.00 | 0.03 | 0.00 | 1 | 1008.7 |
| 20260901023024 | 8 | 175 | 0.0 | 0.0 | 0.00 | 0.03 | 0.00 | 1 | 1008.6 |
| 20260901021523 | 8 | 175 | 0.0 | 0.0 | 0.00 | 0.03 | 0.00 | 1 | 1008.5 |
| 20260901020021 | 8 | 175 | 0.0 | 0.0 | 0.00 | 0.03 | 0.00 | 1 | 1008.5 |
| 20260901014511 | 8 | 175 | 0.0 | 0.0 | 0.00 | 0.03 | 0.00 | 1 | 1008.4 |
| 20260901013007 | 8 | 175 | 0.0 | 0.0 | 0.00 | 0.03 | 0.00 | 1 | 1008.4 |
| 20260901011510 | 8 | 175 | 0.0 | 0.0 | 0.00 | 0.03 | 0.00 | 1 | 1008.4 |
| 20260901010059 | 9 | 212 | 0.0 | 0.0 | 0.00 | 0.03 | 0.00 | 1 | 1008.2 |
| 20260901004612 | 9 | 212 | 0.0 | 0.0 | 0.00 | 0.03 | 0.00 | 1 | 1008.2 |
| 20260901003053 | 9 | 175 | 0.0 | 0.0 | 0.00 | 0.03 | 0.00 | 1 | 1008.2 |
| 20260901001552 | 9 | 212 | 0.0 | 0.0 | 0.00 | 0.03 | 0.00 | 1 | 1008.2 |
| 20260901000047 | 10 | 175 | 0.0 | 0.0 | 0.00 | 0.03 | 0.00 | 1 | 1008.2 |
| 20260831234537 | 10 | 212 | 0.0 | 0.0 | 0.00 | 0.03 | 0.00 | 1 | 1008.1 |
| 20260831233033 | 10 | 212 | 0.0 | 0.0 | 0.00 | 0.03 | 0.00 | 1 | 1008.0 |
| 20260831231528 | 10 | 175 | 0.0 | 0.0 | 0.00 | 0.03 | 0.00 | 1 | 1007.9 |
| 20260831230023 | 10 | 175 | 0.0 | 0.0 | 0.00 | 0.03 | 0.00 | 1 | 1007.9 |
| 20260831224519 | 10 | 175 | 0.0 | 0.0 | 0.00 | 0.03 | 0.00 | 1 | 1007.9 |
| 20260831223015 | 11 | 175 | 0.0 | 0.0 | 0.00 | 0.03 | 0.00 | 1 | 1007.7 |
| 20260831221522 | 11 | 175 | 0.0 | 0.0 | 0.00 | 0.03 | 0.00 | 1 | 1007.6 |
| 20260831220007 | 11 | 175 | 0.0 | 1.6 | 0.00 | 0.03 | 0.00 | 1 | 1007.6 |
| 20260831214501 | 11 | 212 | 0.0 | 1.6 | 0.00 | 0.03 | 0.03 | 1 | 1007.6 |
| 20260831213058 | 11 | 175 | 0.0 | 1.6 | 0.00 | 0.03 | 0.03 | 1 | 1007.5 |
| 20260831211553 | 12 | 212 | 0.0 | 3.2 | 0.00 | 0.03 | 0.03 | 1 | 1007.4 |
| 20260831210049 | 12 | 175 | 0.0 | 0.0 | 0.00 | 0.03 | 0.03 | 1 | 1007.3 |
| 20260831204545 | 12 | 175 | 0.0 | 0.0 | 0.00 | 0.03 | 0.03 | 1 | 1007.0 |
| 20260831203040 | 12 | 175 | 0.0 | 1.6 | 0.00 | 0.03 | 0.03 | 1 | 1007.0 |
| 20260831201535 | 13 | 175 | 0.0 | 0.0 | 0.00 | 0.03 | 0.03 | 1 | 1006.9 |
| 20260831200031 | 13 | 175 | 0.0 | 3.2 | 0.00 | 0.03 | 0.03 | 1 | 1007.0 |
| 20260831194527 | 13 | 175 | 0.0 | 1.6 | 0.00 | 0.05 | 0.03 | 1 | 1006.9 |
| 20260831193036 | 13 | 175 | 0.0 | 4.8 | 0.00 | 0.05 | 0.03 | 1 | 1006.8 |
| 20260831191518 | 13 | 154 | 0.0 | 3.2 | 0.00 | 0.05 | 0.03 | 1 | 1006.7 |
| 20260831190032 | 13 | 154 | 0.0 | 0.0 | 0.00 | 0.05 | 0.03 | 1 | 1006.6 |
| 20260831184509 | 14 | 154 | 0.0 | 0.0 | 0.00 | 0.05 | 0.03 | 1 | 1006.4 |
| 20260831183008 | 14 | 154 | 0.0 | 1.6 | 0.00 | 0.05 | 0.03 | 1 | 1006.3 |
| 20260831181501 | 14 | 154 | 0.0 | 3.2 | 0.00 | 0.05 | 0.03 | 1 | 1006.2 |
| 20260831180057 | 14 | 154 | 0.0 | 4.8 | 0.00 | 0.05 | 0.03 | 1 | 1005.9 |
| 20260831174606 | 15 | 157 | 0.0 | 6.4 | 0.00 | 0.05 | 0.03 | 1 | 1006.0 |
| 20260831173048 | 15 | 156 | 0.0 | 6.4 | 0.00 | 0.05 | 0.03 | 1 | 1005.9 |
| 20260831171543 | 16 | 158 | 0.0 | 8.0 | 0.00 | 0.05 | 0.03 | 1 | 1005.8 |
| 20260831170039 | 18 | 141 | 3.2 | 9.7 | 0.00 | 0.05 | 0.03 | 1 | 1005.7 |
| 20260831164548 | 18 | 175 | 1.6 | 8.0 | 0.00 | 0.05 | 0.03 | 1 | 1005.7 |
| 20260831163035 | 17 | 165 | 1.6 | 8.0 | 0.00 | 0.05 | 0.03 | 1 | 1005.7 |
| 20260831161529 | 17 | 161 | 1.6 | 11.3 | 0.00 | 0.05 | 0.03 | 1 | 1005.6 |
| 20260831160021 | 18 | 212 | 3.2 | 14.5 | 0.00 | 0.05 | 0.03 | 1 | 1005.5 |
| 20260831154524 | 19 | 196 | 1.6 | 12.9 | 0.00 | 0.05 | 0.03 | 1 | 1005.4 |
| 20260831153015 | 20 | 221 | 3.2 | 11.3 | 0.00 | 0.05 | 0.03 | 1 | 1005.4 |
| 20260831151508 | 19 | 174 | 3.2 | 9.7 | 0.00 | 0.05 | 0.03 | 1 | 1005.3 |
| 20260831150004 | 18 | 158 | 1.6 | 9.7 | 0.00 | 0.05 | 0.03 | 1 | 1005.3 |
| 20260831144601 | 19 | 117 | 3.2 | 16.1 | 0.00 | 0.05 | 0.03 | 1 | 1005.3 |
| 20260831143056 | 19 | 131 | 3.2 | 12.9 | 0.00 | 0.05 | 0.03 | 1 | 1005.2 |
| 20260831141552 | 19 | 132 | 3.2 | 16.1 | 0.00 | 0.05 | 0.03 | 1 | 1005.1 |
| 20260831140046 | 19 | 223 | 4.8 | 14.5 | 0.00 | 0.05 | 0.03 | 1 | 1005.0 |
| 20260831134551 | 19 | 160 | 6.4 | 16.1 | 0.00 | 0.05 | 0.03 | 1 | 1004.9 |
| 20260831133037 | 19 | 130 | 3.2 | 12.9 | 0.00 | 0.05 | 0.03 | 1 | 1004.8 |
| 20260831131537 | 19 | 207 | 3.2 | 12.9 | 0.00 | 0.05 | 0.03 | 1 | 1004.8 |
| 20260831130030 | 19 | 169 | 3.2 | 12.9 | 0.00 | 0.05 | 0.03 | 1 | 1004.7 |
| 20260831124525 | 19 | 198 | 3.2 | 14.5 | 0.00 | 0.05 | 0.03 | 1 | 1004.6 |
| 20260831123019 | 18 | 217 | 4.8 | 16.1 | 0.00 | 0.05 | 0.03 | 1 | 1004.6 |
| 20260831121522 | 18 | 140 | 6.4 | 14.5 | 0.03 | 0.05 | 0.03 | 1 | 1004.6 |
| 20260831120018 | 18 | 142 | 6.4 | 12.9 | 0.03 | 0.05 | 0.03 | 1 | 1004.6 |
| 20260831114507 | 18 | 195 | 4.8 | 12.9 | 0.03 | 0.05 | 0.03 | 1 | 1004.5 |
| 20260831113003 | 18 | 180 | 3.2 | 12.9 | 0.03 | 0.05 | 0.03 | 1 | 1004.4 |
| 20260831111557 | 18 | 190 | 3.2 | 12.9 | 0.00 | 0.05 | 0.00 | 1 | 1004.3 |
| 20260831110054 | 18 | 136 | 6.4 | 17.7 | 0.00 | 0.05 | 0.00 | 1 | 1004.5 |
| 20260831104556 | 18 | 212 | 1.6 | 9.7 | 0.00 | 0.05 | 0.00 | 1 | 1004.5 |
| 20260831103045 | 18 | 290 | 3.2 | 6.4 | 0.00 | 0.05 | 0.00 | 1 | 1004.5 |
| 20260831101545 | 18 | 240 | 1.6 | 6.4 | 0.00 | 0.05 | 0.00 | 1 | 1004.4 |
| 20260831100036 | 17 | 342 | 0.0 | 4.8 | 0.00 | 0.05 | 0.00 | 1 | 1004.4 |
| 20260831094540 | 17 | 303 | 3.2 | 4.8 | 0.00 | 0.05 | 0.00 | 1 | 1004.4 |
| 20260831093031 | 17 | 225 | 3.2 | 8.0 | 0.00 | 0.05 | 0.00 | 1 | 1004.4 |
| 20260831091536 | 16 | 241 | 3.2 | 6.4 | 0.00 | 0.05 | 0.00 | 1 | 1004.5 |
| 20260831090019 | 16 | 232 | 1.6 | 8.0 | 0.00 | 0.05 | 0.00 | 1 | 1004.4 |
| 20260831084540 | 16 | 203 | 3.2 | 6.4 | 0.00 | 0.05 | 0.00 | 1 | 1004.5 |
| 20260831083012 | 16 | 222 | 3.2 | 9.7 | 0.00 | 0.05 | 0.00 | 1 | 1004.5 |
| 20260831081506 | 15 | 236 | 1.6 | 6.4 | 0.00 | 0.05 | 0.00 | 1 | 1004.6 |
| 20260831080006 | 15 | 217 | 1.6 | 8.0 | 0.00 | 0.05 | 0.00 | 1 | 1004.6 |
| 20260831074558 | 15 | 233 | 0.0 | 8.0 | 0.00 | 0.05 | 0.00 | 1 | 1004.6 |
| 20260831073053 | 14 | 212 | 3.2 | 6.4 | 0.00 | 0.05 | 0.00 | 1 | 1004.5 |
| 20260831071551 | 13 | 212 | 1.6 | 9.7 | 0.00 | 0.05 | 0.00 | 1 | 1004.6 |
| 20260831070045 | 13 | 234 | 0.0 | 6.4 | 0.00 | 0.05 | 0.00 | 1 | 1004.6 |
| 20260831064549 | 13 | 239 | 0.0 | 4.8 | 0.00 | 0.05 | 0.00 | 1 | 1004.6 |
| 20260831063050 | 13 | 239 | 0.0 | 4.8 | 0.00 | 0.05 | 0.00 | 1 | 1004.6 |
| 20260831061531 | 13 | 239 | 3.2 | 6.4 | 0.00 | 0.05 | 0.00 | 1 | 1004.6 |
| 20260831060031 | 12 | 212 | 0.0 | 0.0 | 0.00 | 0.05 | 0.00 | 1 | 1004.8 |
| 20260831054523 | 12 | 212 | 0.0 | 0.0 | 0.00 | 0.08 | 0.00 | 1 | 1004.8 |
| 20260831053018 | 12 | 212 | 0.0 | 0.0 | 0.00 | 0.08 | 0.00 | 1 | 1004.9 |
| 20260831051525 | 12 | 212 | 0.0 | 3.2 | 0.00 | 0.08 | 0.00 | 1 | 1004.8 |
| 20260831050009 | 12 | 212 | 0.0 | 0.0 | 0.00 | 0.08 | 0.00 | 1 | 1004.8 |
| 20260831044507 | 12 | 212 | 0.0 | 0.0 | 0.00 | 0.08 | 0.00 | 1 | 1004.9 |
| 20260831043101 | 12 | 212 | 0.0 | 0.0 | 0.00 | 0.08 | 0.00 | 1 | 1005.0 |